SCP
-0 -0 -0 -0 -0 -0 -0 -0 -0 -0 -0 -0 -0 -0 -0 -0 -0 0 0 0 0 -0 0 0 0 0 0 0 0 0 0 0 0 0 0 0 0 0 0 0 0 0 0 0 0
-0 -0 -0 -0 -0 -0 -0 -0 -0 -0 -0 -0 -0 -0 0 -0 0 0 0 0 0 -0 -0 -0 0 0 0 0 0 0 0 0 0 0 0 0 0 0 0 0 0 0 0 0 0
-0 -0 -0 -0 -0 -0 -0 -0 -0 0 0 0 0 -0 -0 0 0 0 0 0 0 -0 0 -0 -0 0 0 0 0 0 0 0 0 0 0 0 0 0 0 0 0 0 0 0 0
-0 -0 -0 -0 -0 -0 -0 0 0 0 0 0 0 0 -0 0 -0 0 0 0 0 -0 0 -0 -0 0 0 0 0 0 0 0 0 0 0 0 0 0 0 0 0 0 0 0 0
-0 -0 -0 -0 -0 -0 0 0 0 0 0 0 0 -0 0 -0 -0 0 0 -0 -0 0 0 0 0 0 0 0 0 0 0 0 0 0 0 0 0 0 0 0 0 0 0 0 0
-0 -0 -0 -0 -0 -0 0 0 0 -0 0 0 -0 -0 -0 -0 0 0 0 -0 0 0 0 0 0 0 0 0 0 0 0 0 0 0 0 0 0 0 -0 0 0 0 0 0 0
-0 -0 -0 -0 -0 -0 -0 -0 -0 -0 -0 -0 -0 -0 0 0 -0 0 0 0 0 0 0 0 0 0 0 0 0 0 0 0 0 0 0 0 0 0 -0 -0 -0 0 -0 0 0
-0 -0 -0 -0 -0 -0 -0 -0 -0 -0 -0 0 0 -0 0 -0 -0 -0 0 -0 0 0 0 -0 0 0 0 0 0 0 0 0 0 0 0 0 0 0 0 0 0 -0 -0 -0 0
-0 -0 -0 -0 -0 -0 -0 -0 -0 0 0 -0 -0 0 -0 -0 0 0 0 0 0 0 0 0 0 0 0 0 0 0 0 0 0 0 0 0 0 0 0 0 0 -0 -0 -0 -0
-0 -0 -0 -0 -0 -0 -0 -0 0 0 0 -0 -0 0 -0 0 -0 -0 0 0 0 0 0 0 0 0 0 0 0 0 0 0 0 0 0 0 0 0 0 0 0 0 0 -0 -0
-0 -0 -0 -0 -0 -0 0 0 0 0 0 0 0 -0 -0 -0 -0 0 0 0 0 0 0 0 0 0 -0 0 0 0 0 0 0 0 0 0 0 0 0 0 0 0 0 0 0
-0 -0 -0 -0 -0 -0 0 0 0 0 0 0 0 -0 0 0 0 0 0 0 0 0 0 0 0 0 0 0 0 0 0 0 0 0 0 0 0 0 0 0 0 0 0 0 0
-0 -0 -0 -0 0 0 0 0 -0 0 0 0 0 0 0 0 0 0 0 0 0 0 0 0 0 0 0 0 0 0 0 0 0 0 0 0 0 0 0 0 0 0 0 0 0
-0 -0 -0 -0 0 0 0 0 -0 0 0 0 0 0 0 0 0 0 0 0 0 0 0 0 0 0 0 0 0 0 0 0 0 0 0 0 0 0 0 0 0 0 0 0 0
-0 -0 -0 0 0 0 0 0 0 0 0 0 0 0 0 0 0 0 0 0 0 0 0 0 0 0 0 0 0 0 0 0 0 0 0 0 0 0 0 0 0 0 0 0 0
-0 -0 0 0 0 0 -0 -0 0 0 0 0 0 0 0 0 0 0 0 0 0 0 0 0 0 0 0 0 0 0 0 0 0 0 0 0 0 0 0 0 0 0 0 0 0
-0 -0 0 0 0 0 -0 0 0 0 0 0 0 0 0 0 0 0 0 0 0 0 0 0 0 0 0 0 0 0 0 0 0 0 0 0 0 0 0 0 0 0 0 0 0
-0 0 0 0 0 0 0 0 0 0 0 0 0 0 0 0 0 0 0 0 0 0 0 0 0 0 0 0 0 0 0 0 0 0 0 0 0 0 0 0 0 0 0 0 0
-0 0 0 0 0 0 0 0 0 0 0 0 0 0 0 0 0 0 0 0 0 0 0 0 0 0 0 0 0 0 0 0 0 0 0 0 0 0 0 0 0 0 0 0 0
0 0 0 0 0 0 0 0 0 0 0 0 0 0 0 0 0 0 0 0 0 0 0 0 0 0 0 0 0 0 0 0 0 0 0 0 0 0 0 0 0 0 0 0 0
0 0 0 0 0 0 0 0 0 0 0 0 0 0 0 0 0 0 0 0 0 0 0 0 0 0 0 0 0 0 0 0 0 0 0 0 0 0 0 0 0 0 0 0 -0
0 0 0 0 0 0 0 0 0 0 0 0 0 0 0 0 0 0 0 0 0 0 0 0 0 0 0 0 0 0 0 0 0 0 0 0 0 0 0 0 0 0 -0 0 0
0 0 0 0 0 0 0 0 0 0 0 0 0 0 0 0 0 0 0 0 0 0 0 0 0 0 0 0 0 0 0 0 0 0 0 0 0 0 0 0 0 0 0 0 0
0 0 0 0 0 0 0 0 0 0 0 0 0 0 0 0 0 0 0 0 0 0 0 0 0 0 0 0 0 0 0 0 0 0 0 0 0 0 0 0 0 0 0 -0 0
0 0 0 0 0 0 0 0 0 0 0 0 0 0 0 0 0 0 0 0 0 0 0 0 0 0 0 0 0 0 0 0 0 0 0 0 0 0 0 0 0 0 -0 -0 -0
0 0 0 0 0 0 0 0 0 0 0 0 0 0 0 0 0 0 0 0 0 0 0 0 0 0 0 0 0 0 0 0 0 0 0 0 0 0 0 0 0 0 -0 -0 -0
0 0 0 0 0 0 0 0 0 0 0 0 0 0 0 0 0 0 0 0 0 0 0 0 0 0 0 0 0 0 0 0 0 0 0 0 0 0 0 0 0 -0 -0 -0 -0
Wind_Speed_500mb
18 19 19 19 20 20 19 17 14 19 22 21 23 23 24 27 31 33 38 38 44 43 34 24 20 12 18 13 12 6 10 4 5 3 8 16 11 11 10 20 21 15 7 11 14
19 19 19 20 21 21 19 18 19 25 24 22 20 22 29 38 39 42 36 36 39 39 35 29 24 25 20 12 10 12 8 11 3 3 4 8 7 15 4 15 13 42 29 29 27
21 20 20 21 21 20 17 18 23 27 23 17 19 19 27 35 32 31 31 31 33 33 35 39 16 17 22 14 18 4 6 2 2 4 12 7 9 9 10 7 29 30 36 28 28
23 22 22 22 21 16 16 20 25 25 19 18 19 16 17 6 8 16 22 28 20 30 31 39 46 11 10 8 16 8 8 2 11 15 9 5 6 11 7 8 26 33 36 37 28
23 23 24 23 19 17 19 22 24 21 18 17 21 18 18 23 18 14 17 20 22 28 35 35 44 16 8 5 9 8 8 19 31 24 11 5 2 6 6 15 21 26 33 40 40
22 23 24 23 20 19 20 21 20 17 13 14 17 20 18 19 15 13 15 14 22 26 29 30 21 20 8 5 6 10 16 28 14 11 4 2 4 4 5 11 21 31 39 46 47
20 21 22 22 21 19 17 14 12 9 9 10 12 17 11 11 5 6 11 15 18 18 23 24 18 13 13 8 10 11 12 12 4 8 8 12 12 8 11 16 25 30 36 41 48
16 17 18 20 20 18 15 11 6 2 6 9 12 15 4 5 3 13 15 15 15 20 24 20 11 5 7 6 13 10 10 11 15 14 2 8 15 15 22 27 32 36 39 39 41
15 11 12 17 18 15 11 11 5 6 8 12 15 8 3 2 5 3 3 7 10 10 20 23 11 9 6 8 10 13 4 9 16 16 7 2 16 16 23 26 35 39 37 39 46
21 8 5 9 12 13 8 7 11 10 10 14 9 3 4 4 8 10 11 13 10 8 11 14 10 7 7 10 4 9 6 9 12 13 5 17 21 16 31 39 37 39 23 26 34
26 9 1 5 6 5 10 4 7 3 18 15 20 19 26 13 13 15 20 15 16 5 2 9 11 4 9 10 11 6 7 10 10 13 8 14 18 18 40 43 44 23 15 25 31
30 13 3 6 4 5 8 11 11 13 15 15 14 24 22 23 12 10 10 10 8 8 5 11 4 12 6 6 7 8 6 8 13 11 9 19 44 23 19 23 16 7 14 24 26
29 17 4 11 4 9 15 13 11 15 4 9 5 6 6 3 4 27 13 7 7 5 9 11 15 0 8 2 1 3 6 6 13 10 10 14 15 8 4 7 11 8 11 13 17
31 18 6 13 5 9 2 9 16 11 8 7 2 8 8 2 7 35 24 5 2 10 8 9 7 4 5 4 5 5 6 8 14 9 16 5 14 8 3 13 8 8 7 10 15
33 17 5 21 6 7 10 19 13 2 5 2 5 7 24 13 10 28 22 9 3 7 7 17 4 5 4 2 4 12 7 11 11 6 8 8 2 13 5 10 14 14 6 7 10
32 14 3 10 12 7 19 15 1 9 2 3 7 10 10 19 8 23 23 19 6 5 4 7 9 5 2 4 6 6 8 7 7 5 3 5 7 10 8 9 6 5 14 11 5
26 11 8 13 3 14 20 1 9 8 7 11 6 9 7 12 9 12 11 12 6 11 10 15 8 2 4 6 5 15 12 9 12 9 9 3 7 18 15 14 12 17 17 8 7
22 20 24 13 9 21 11 9 5 3 4 4 9 5 6 12 4 14 9 10 5 8 2 1 12 5 2 3 7 2 11 9 9 6 11 11 13 12 9 12 13 11 18 22 20
21 25 20 15 19 22 6 10 5 1 5 4 6 7 4 3 4 13 5 4 5 4 3 3 9 8 5 5 9 5 3 4 3 2 7 7 13 17 12 13 17 27 26 31 29
13 19 23 20 20 19 9 4 1 6 6 4 2 3 4 5 5 10 6 5 2 7 7 6 13 9 6 4 2 9 13 4 5 6 10 11 11 15 14 19 18 18 28 33 33
5 6 27 19 18 10 7 2 5 9 22 2 6 4 4 3 2 4 8 9 3 2 3 5 7 10 4 10 14 4 3 3 6 7 8 8 9 12 15 22 19 19 38 38 31
10 6 27 12 11 6 3 8 14 13 17 8 5 3 3 2 6 7 10 10 5 3 7 5 7 9 24 25 5 11 15 14 9 10 11 7 26 22 22 19 17 32 57 45 46
11 8 20 6 7 7 12 9 7 15 10 11 7 9 8 3 7 6 7 11 36 3 3 3 4 9 17 10 2 7 8 9 2 5 25 19 18 3 11 17 44 34 34 42 63
12 8 15 23 13 6 6 7 10 18 5 11 4 11 11 5 5 10 9 11 6 12 37 14 10 17 17 26 7 15 20 17 16 12 22 26 46 36 35 17 22 24 43 56 69
16 8 10 8 11 9 2 5 7 13 11 13 7 10 3 8 8 11 8 9 18 34 6 6 13 15 23 37 28 34 39 38 32 40 26 43 34 38 28 17 19 36 41 60 71
11 11 11 7 13 8 9 6 7 8 5 8 3 12 5 10 14 29 7 6 13 9 4 1 11 7 9 25 24 27 31 38 36 31 28 34 31 5 22 33 26 43 47 67 68
24 16 8 6 7 3 2 4 6 11 11 14 10 11 13 12 32 53 56 53 32 13 7 7 5 3 10 9 17 14 12 7 6 4 7 11 17 10 19 38 54 48 62 70 70
Wind_Direction_500mb
69 63 54 41 29 26 27 33 63 108 112 102 85 54 67 93 92 73 52 44 41 39 40 47 59 65 72 63 50 43 63 111 119 94 304 347 16 8 349 341 352 358 2 344 345
64 59 50 36 28 23 30 44 87 112 113 99 69 59 89 101 87 63 50 41 38 32 31 32 42 62 70 51 34 67 84 200 184 72 329 305 350 328 342 329 353 343 334 339 328
58 53 41 29 23 24 39 67 100 113 110 84 61 68 104 110 81 57 51 41 40 37 26 29 30 80 53 43 15 47 121 145 89 149 335 306 337 326 312 4 6 342 346 341 327
51 41 29 21 21 39 64 87 106 110 98 74 47 49 59 157 96 70 50 37 44 42 41 38 40 60 62 37 354 82 33 94 300 312 310 289 3 328 101 15 27 27 18 19 5
41 36 27 23 35 61 80 99 108 105 91 62 48 47 75 88 99 83 58 49 44 40 36 32 31 48 64 348 11 58 323 306 317 312 321 157 209 230 159 7 0 346 357 356 351
36 32 31 39 54 73 89 101 108 104 79 55 44 43 83 84 96 85 57 45 33 43 36 26 12 10 86 43 88 322 304 313 334 339 323 266 313 135 218 335 344 348 343 340 338
31 33 40 51 64 71 87 102 113 98 48 21 13 19 69 90 92 49 39 37 47 28 15 2 1 350 331 2 335 328 352 345 2 329 302 320 339 309 298 320 329 336 333 329 326
20 32 46 63 72 67 67 78 103 77 16 358 345 347 113 164 109 58 67 67 47 21 7 14 357 28 35 324 356 29 50 14 294 322 319 44 277 281 302 330 325 323 326 325 320
4 23 51 85 77 64 55 39 320 291 314 317 321 342 125 305 287 282 23 9 16 17 357 7 26 56 47 65 17 7 278 308 315 322 291 187 271 269 316 319 303 310 323 327 320
6 3 46 113 88 70 46 335 332 262 293 309 314 299 201 326 308 281 305 285 286 321 341 5 43 63 42 60 292 281 317 265 260 292 345 290 262 291 298 306 288 297 340 357 355
6 358 276 153 123 69 17 347 358 360 307 273 277 285 292 300 291 282 274 286 250 289 72 10 56 259 248 178 209 234 204 243 262 273 306 257 269 260 277 285 275 303 347 351 357
3 357 275 173 147 30 58 73 42 336 311 320 276 264 275 281 299 348 285 233 187 209 105 18 271 231 260 179 195 201 226 273 289 285 310 290 287 294 230 250 292 228 329 355 355
358 354 230 163 149 108 95 64 353 333 289 313 29 40 41 272 268 335 305 254 194 189 190 160 245 253 229 178 45 281 179 265 246 294 257 288 285 238 295 248 260 310 346 17 16
349 347 242 195 204 187 10 345 332 323 59 311 36 42 351 308 85 32 16 285 5 235 169 226 298 292 283 233 122 321 195 247 279 326 302 92 288 313 1 297 257 308 4 6 24
340 337 288 203 198 200 324 324 315 299 68 295 68 46 48 83 344 5 7 21 287 257 134 251 287 295 265 233 153 234 326 270 286 268 3 326 41 268 296 265 272 311 302 294 17
344 343 308 198 205 259 314 327 251 47 170 9 47 3 43 29 39 348 5 6 336 16 11 244 308 75 118 28 110 324 331 13 49 72 14 249 104 271 260 213 280 292 261 247 312
2 27 91 110 125 315 320 248 44 117 350 350 344 23 85 358 13 20 356 8 28 9 355 336 334 339 57 25 4 43 42 336 347 0 234 355 328 243 256 226 233 263 277 245 308
28 74 99 107 15 348 358 58 90 7 18 332 20 30 90 15 10 335 11 358 2 70 53 41 319 338 176 206 245 218 145 154 271 246 274 286 242 254 247 271 246 279 258 238 270
69 92 71 41 4 352 2 62 184 217 291 8 358 64 344 13 21 20 344 245 219 141 109 294 258 282 279 171 126 183 175 190 156 254 286 246 288 304 276 264 272 279 266 262 275
78 87 33 11 354 352 73 142 119 359 329 83 143 175 231 280 14 19 314 231 238 214 141 259 290 251 297 337 172 165 160 57 352 268 253 251 252 238 285 286 298 294 292 291 290
47 72 9 355 359 30 97 269 316 10 12 203 217 274 239 289 231 253 242 285 129 341 167 168 142 273 8 222 213 196 196 133 184 199 226 290 247 217 237 278 272 271 307 313 309
37 54 3 17 44 39 62 320 344 354 1 353 89 168 229 268 258 254 239 225 49 178 290 201 183 246 248 257 207 193 205 161 152 220 230 247 271 247 265 263 267 298 318 316 320
11 0 15 29 73 3 327 329 7 10 12 13 356 46 22 309 334 249 265 272 312 295 281 199 305 324 321 360 350 198 206 209 95 28 251 265 265 274 282 300 298 312 322 324 325
5 16 25 58 66 109 16 343 325 356 100 5 334 71 16 316 243 281 261 292 332 272 293 247 202 200 241 266 229 262 262 237 221 254 262 248 280 293 291 287 302 327 329 325 318
30 50 17 338 360 8 350 3 349 359 350 4 49 89 30 283 273 253 267 290 299 295 297 144 240 234 250 262 264 269 272 270 245 251 257 276 277 282 297 317 317 319 319 314 312
46 7 349 340 324 339 1 41 6 327 290 317 106 312 303 235 226 290 271 233 232 322 163 234 276 299 273 257 260 267 264 260 270 269 262 267 277 7 322 322 311 311 309 307 305
26 5 344 340 347 20 271 31 313 327 276 244 336 312 286 258 311 294 277 267 251 276 264 232 234 300 269 319 310 286 261 266 288 291 205 285 303 341 330 316 310 306 302 299 300
Wind_Speed_850mb
18 19 19 19 20 20 19 17 14 19 22 21 23 23 24 27 31 33 38 38 44 43 34 24 20 12 18 13 12 6 10 4 5 3 8 16 11 11 10 20 21 15 7 11 14
19 19 19 20 21 21 19 18 19 25 24 22 20 22 29 38 39 42 36 36 39 39 35 29 24 25 20 12 10 12 8 11 3 3 4 8 7 15 4 15 13 42 29 29 27
21 20 20 21 21 20 17 18 23 27 23 17 19 19 27 35 32 31 31 31 33 33 35 39 16 17 22 14 18 4 6 2 2 4 12 7 9 9 10 7 29 30 36 28 28
23 22 22 22 21 16 16 20 25 25 19 18 19 16 17 6 8 16 22 28 20 30 31 39 46 11 10 8 16 8 8 2 11 15 9 5 6 11 7 8 26 33 36 37 28
23 23 24 23 19 17 19 22 24 21 18 17 21 18 18 23 18 14 17 20 22 28 35 35 44 16 8 5 9 8 8 19 31 24 11 5 2 6 6 15 21 26 33 40 40
22 23 24 23 20 19 20 21 20 17 13 14 17 20 18 19 15 13 15 14 22 26 29 30 21 20 8 5 6 10 16 28 14 11 4 2 4 4 5 11 21 31 39 46 47
20 21 22 22 21 19 17 14 12 9 9 10 12 17 11 11 5 6 11 15 18 18 23 24 18 13 13 8 10 11 12 12 4 8 8 12 12 8 11 16 25 30 36 41 48
16 17 18 20 20 18 15 11 6 2 6 9 12 15 4 5 3 13 15 15 15 20 24 20 11 5 7 6 13 10 10 11 15 14 2 8 15 15 22 27 32 36 39 39 41
15 11 12 17 18 15 11 11 5 6 8 12 15 8 3 2 5 3 3 7 10 10 20 23 11 9 6 8 10 13 4 9 16 16 7 2 16 16 23 26 35 39 37 39 46
21 8 5 9 12 13 8 7 11 10 10 14 9 3 4 4 8 10 11 13 10 8 11 14 10 7 7 10 4 9 6 9 12 13 5 17 21 16 31 39 37 39 23 26 34
26 9 1 5 6 5 10 4 7 3 18 15 20 19 26 13 13 15 20 15 16 5 2 9 11 4 9 10 11 6 7 10 10 13 8 14 18 18 40 43 44 23 15 25 31
30 13 3 6 4 5 8 11 11 13 15 15 14 24 22 23 12 10 10 10 8 8 5 11 4 12 6 6 7 8 6 8 13 11 9 19 44 23 19 23 16 7 14 24 26
29 17 4 11 4 9 15 13 11 15 4 9 5 6 6 3 4 27 13 7 7 5 9 11 15 0 8 2 1 3 6 6 13 10 10 14 15 8 4 7 11 8 11 13 17
31 18 6 13 5 9 2 9 16 11 8 7 2 8 8 2 7 35 24 5 2 10 8 9 7 4 5 4 5 5 6 8 14 9 16 5 14 8 3 13 8 8 7 10 15
33 17 5 21 6 7 10 19 13 2 5 2 5 7 24 13 10 28 22 9 3 7 7 17 4 5 4 2 4 12 7 11 11 6 8 8 2 13 5 10 14 14 6 7 10
32 14 3 10 12 7 19 15 1 9 2 3 7 10 10 19 8 23 23 19 6 5 4 7 9 5 2 4 6 6 8 7 7 5 3 5 7 10 8 9 6 5 14 11 5
26 11 8 13 3 14 20 1 9 8 7 11 6 9 7 12 9 12 11 12 6 11 10 15 8 2 4 6 5 15 12 9 12 9 9 3 7 18 15 14 12 17 17 8 7
22 20 24 13 9 21 11 9 5 3 4 4 9 5 6 12 4 14 9 10 5 8 2 1 12 5 2 3 7 2 11 9 9 6 11 11 13 12 9 12 13 11 18 22 20
21 25 20 15 19 22 6 10 5 1 5 4 6 7 4 3 4 13 5 4 5 4 3 3 9 8 5 5 9 5 3 4 3 2 7 7 13 17 12 13 17 27 26 31 29
13 19 23 20 20 19 9 4 1 6 6 4 2 3 4 5 5 10 6 5 2 7 7 6 13 9 6 4 2 9 13 4 5 6 10 11 11 15 14 19 18 18 28 33 33
5 6 27 19 18 10 7 2 5 9 22 2 6 4 4 3 2 4 8 9 3 2 3 5 7 10 4 10 14 4 3 3 6 7 8 8 9 12 15 22 19 19 38 38 31
10 6 27 12 11 6 3 8 14 13 17 8 5 3 3 2 6 7 10 10 5 3 7 5 7 9 24 25 5 11 15 14 9 10 11 7 26 22 22 19 17 32 57 45 46
11 8 20 6 7 7 12 9 7 15 10 11 7 9 8 3 7 6 7 11 36 3 3 3 4 9 17 10 2 7 8 9 2 5 25 19 18 3 11 17 44 34 34 42 63
12 8 15 23 13 6 6 7 10 18 5 11 4 11 11 5 5 10 9 11 6 12 37 14 10 17 17 26 7 15 20 17 16 12 22 26 46 36 35 17 22 24 43 56 69
16 8 10 8 11 9 2 5 7 13 11 13 7 10 3 8 8 11 8 9 18 34 6 6 13 15 23 37 28 34 39 38 32 40 26 43 34 38 28 17 19 36 41 60 71
11 11 11 7 13 8 9 6 7 8 5 8 3 12 5 10 14 29 7 6 13 9 4 1 11 7 9 25 24 27 31 38 36 31 28 34 31 5 22 33 26 43 47 67 68
24 16 8 6 7 3 2 4 6 11 11 14 10 11 13 12 32 53 56 53 32 13 7 7 5 3 10 9 17 14 12 7 6 4 7 11 17 10 19 38 54 48 62 70 70
Wind_Direction_850mb
69 63 54 41 29 26 27 33 63 108 112 102 85 54 67 93 92 73 52 44 41 39 40 47 59 65 72 63 50 43 63 111 119 94 304 347 16 8 349 341 352 358 2 344 345
64 59 50 36 28 23 30 44 87 112 113 99 69 59 89 101 87 63 50 41 38 32 31 32 42 62 70 51 34 67 84 200 184 72 329 305 350 328 342 329 353 343 334 339 328
58 53 41 29 23 24 39 67 100 113 110 84 61 68 104 110 81 57 51 41 40 37 26 29 30 80 53 43 15 47 121 145 89 149 335 306 337 326 312 4 6 342 346 341 327
51 41 29 21 21 39 64 87 106 110 98 74 47 49 59 157 96 70 50 37 44 42 41 38 40 60 62 37 354 82 33 94 300 312 310 289 3 328 101 15 27 27 18 19 5
41 36 27 23 35 61 80 99 108 105 91 62 48 47 75 88 99 83 58 49 44 40 36 32 31 48 64 348 11 58 323 306 317 312 321 157 209 230 159 7 0 346 357 356 351
36 32 31 39 54 73 89 101 108 104 79 55 44 43 83 84 96 85 57 45 33 43 36 26 12 10 86 43 88 322 304 313 334 339 323 266 313 135 218 335 344 348 343 340 338
31 33 40 51 64 71 87 102 113 98 48 21 13 19 69 90 92 49 39 37 47 28 15 2 1 350 331 2 335 328 352 345 2 329 302 320 339 309 298 320 329 336 333 329 326
20 32 46 63 72 67 67 78 103 77 16 358 345 347 113 164 109 58 67 67 47 21 7 14 357 28 35 324 356 29 50 14 294 322 319 44 277 281 302 330 325 323 326 325 320
4 23 51 85 77 64 55 39 320 291 314 317 321 342 125 305 287 282 23 9 16 17 357 7 26 56 47 65 17 7 278 308 315 322 291 187 271 269 316 319 303 310 323 327 320
6 3 46 113 88 70 46 335 332 262 293 309 314 299 201 326 308 281 305 285 286 321 341 5 43 63 42 60 292 281 317 265 260 292 345 290 262 291 298 306 288 297 340 357 355
6 358 276 153 123 69 17 347 358 360 307 273 277 285 292 300 291 282 274 286 250 289 72 10 56 259 248 178 209 234 204 243 262 273 306 257 269 260 277 285 275 303 347 351 357
3 357 275 173 147 30 58 73 42 336 311 320 276 264 275 281 299 348 285 233 187 209 105 18 271 231 260 179 195 201 226 273 289 285 310 290 287 294 230 250 292 228 329 355 355
358 354 230 163 149 108 95 64 353 333 289 313 29 40 41 272 268 335 305 254 194 189 190 160 245 253 229 178 45 281 179 265 246 294 257 288 285 238 295 248 260 310 346 17 16
349 347 242 195 204 187 10 345 332 323 59 311 36 42 351 308 85 32 16 285 5 235 169 226 298 292 283 233 122 321 195 247 279 326 302 92 288 313 1 297 257 308 4 6 24
340 337 288 203 198 200 324 324 315 299 68 295 68 46 48 83 344 5 7 21 287 257 134 251 287 295 265 233 153 234 326 270 286 268 3 326 41 268 296 265 272 311 302 294 17
344 343 308 198 205 259 314 327 251 47 170 9 47 3 43 29 39 348 5 6 336 16 11 244 308 75 118 28 110 324 331 13 49 72 14 249 104 271 260 213 280 292 261 247 312
2 27 91 110 125 315 320 248 44 117 350 350 344 23 85 358 13 20 356 8 28 9 355 336 334 339 57 25 4 43 42 336 347 0 234 355 328 243 256 226 233 263 277 245 308
28 74 99 107 15 348 358 58 90 7 18 332 20 30 90 15 10 335 11 358 2 70 53 41 319 338 176 206 245 218 145 154 271 246 274 286 242 254 247 271 246 279 258 238 270
69 92 71 41 4 352 2 62 184 217 291 8 358 64 344 13 21 20 344 245 219 141 109 294 258 282 279 171 126 183 175 190 156 254 286 246 288 304 276 264 272 279 266 262 275
78 87 33 11 354 352 73 142 119 359 329 83 143 175 231 280 14 19 314 231 238 214 141 259 290 251 297 337 172 165 160 57 352 268 253 251 252 238 285 286 298 294 292 291 290
47 72 9 355 359 30 97 269 316 10 12 203 217 274 239 289 231 253 242 285 129 341 167 168 142 273 8 222 213 196 196 133 184 199 226 290 247 217 237 278 272 271 307 313 309
37 54 3 17 44 39 62 320 344 354 1 353 89 168 229 268 258 254 239 225 49 178 290 201 183 246 248 257 207 193 205 161 152 220 230 247 271 247 265 263 267 298 318 316 320
11 0 15 29 73 3 327 329 7 10 12 13 356 46 22 309 334 249 265 272 312 295 281 199 305 324 321 360 350 198 206 209 95 28 251 265 265 274 282 300 298 312 322 324 325
5 16 25 58 66 109 16 343 325 356 100 5 334 71 16 316 243 281 261 292 332 272 293 247 202 200 241 266 229 262 262 237 221 254 262 248 280 293 291 287 302 327 329 325 318
30 50 17 338 360 8 350 3 349 359 350 4 49 89 30 283 273 253 267 290 299 295 297 144 240 234 250 262 264 269 272 270 245 251 257 276 277 282 297 317 317 319 319 314 312
46 7 349 340 324 339 1 41 6 327 290 317 106 312 303 235 226 290 271 233 232 322 163 234 276 299 273 257 260 267 264 260 270 269 262 267 277 7 322 322 311 311 309 307 305
26 5 344 340 347 20 271 31 313 327 276 244 336 312 286 258 311 294 277 267 251 276 264 232 234 300 269 319 310 286 261 266 288 291 205 285 303 341 330 316 310 306 302 299 300